Regional Weather Roundup
Issued by NWS

Home | Current Version | Previous Version | Text Only | Print | Product List | Glossary On
Versions: 1 2 3 4 5 6 7 8 9 10 11 12 13 14 15 16 17 18 19 20 21 22 23 24 25 26 27 28 29 30 31 32 33 34 35 36 37 38 39 40 41 42 43 44 45 46 47 48 49 50
000
ASUS43 KFSD 281910
RWRSD

WEATHER ROUNDUP FOR SOUTH DAKOTA
NATIONAL WEATHER SERVICE SIOUX FALLS SD
200 PM CDT WED SEP 28 2016

NOTE: "FAIR" INDICATES FEW OR NO CLOUDS BELOW 12,000 FEET WITH NO
SIGNIFICANT WEATHER AND/OR OBSTRUCTIONS TO VISIBILITY.


SDZ001>005-009-010-012>017-282000-
NORTHWEST AND NORTH CENTRAL SOUTH DAKOTA

CITY           SKY/WX    TMP DP  RH WIND       PRES   REMARKS
BUFFALO          N/A     78  49  35 E7        30.19S
FAITH            N/A     72  42  34 SE7       30.26R
MOBRIDGE       SUNNY     68  40  35 VRB5      30.26S
$$

SDZ012>016-024>037-041>051-057-063-072>074-282000-
SOUTHWEST AND SOUTH CENTRAL SOUTH DAKOTA

CITY           SKY/WX    TMP DP  RH WIND       PRES   REMARKS
RAPID CTY ARPT SUNNY     79  47  32 NE8       30.26S
PIERRE         SUNNY     67  37  33 NE6       30.26S
CUSTER         SUNNY     72  39  30 E14G23    30.37S
ELLSWORTH AFB  SUNNY     78  47  33 NE9       30.26R
PHILIP         SUNNY     74  42  31 E12       30.25S
PINE RIDGE     SUNNY     81  44  27 VRB7      30.25F
WINNER         FAIR      69  39  33 VRB6      30.27S
$$

SDZ004>011-016>023-039-040-282000-
NORTHEAST SOUTH DAKOTA

CITY           SKY/WX    TMP DP  RH WIND       PRES   REMARKS
ABERDEEN       SUNNY     62  43  49 NE6       30.29S
WATERTOWN      SUNNY     61  46  57 N10       30.27R
BROOKINGS      SUNNY     59  45  59 NE9       30.26S
SISSETON         N/A     56  46  69 VRB6      30.29S
$$

SDZ017-020-022-023-036>040-048>070-282000-
SOUTHEAST SOUTH DAKOTA

CITY           SKY/WX    TMP DP  RH WIND       PRES   REMARKS
SIOUX FALLS    MOSUNNY   64  47  53 N10       30.25S
HURON          SUNNY     63  43  48 NE8       30.27S
CHAMBERLAIN    SUNNY     66  47  51 CALM      30.27S
MITCHELL       SUNNY     63  45  51 NE6       30.28S
YANKTON        SUNNY     63  45  51 N12       30.23F
$$

ABBREVIATIONS USED IN REMARKS
   TC - TEMPERATURE IN CELSIUS
  WCI - WIND CHILL INDEX
   HX - HEAT INDEX
  VSB - VISIBILITY





USA.gov is the U.S. government's official web portal to all federal, state and local government web resources and services.